Theta_e
360 360 360 359 359 359 357 357 355 356 353 355 355 354 354 355 355 355 357 357 357 355 359 360 361 361 359 360 359 360 362 361 363 365 366 366 366 367 367 369 364 365 366 366 363 363 365 363 365 366 370 366 367 364 362 364 365 364 366 368 364 365 363 358 352 351 357 362 360 358 359 361 356 360 357 357 357 362 358 359 362 360 359 359 359
361 361 361 358 357 359 358 357 358 357 354 353 355 356 356 356 358 359 356 358 359 356 357 359 362 362 361 361 361 361 363 365 362 363 364 365 364 362 362 365 367 363 365 365 366 364 367 367 364 365 369 365 363 359 359 356 356 357 360 359 361 362 364 358 356 353 351 359 361 364 361 361 355 364 360 360 359 360 360 362 364 364 364 362 360
361 363 361 360 360 360 359 359 358 356 353 352 351 352 356 357 358 359 356 355 360 359 358 357 361 364 362 362 362 361 363 363 363 362 363 364 363 362 361 361 362 362 363 364 363 364 364 365 363 364 363 361 363 361 359 360 360 362 364 367 362 359 363 363 359 354 353 355 362 357 357 363 362 362 365 365 364 365 364 365 362 363 365 364 364
362 362 361 359 358 361 361 361 357 355 355 353 351 352 355 355 358 358 358 356 357 360 361 359 362 364 363 363 363 360 363 361 361 361 362 363 363 363 363 363 361 361 362 363 363 363 363 363 361 360 361 362 363 364 364 363 364 365 362 359 363 363 368 371 368 361 359 355 360 360 362 361 362 365 366 365 363 363 363 364 365 363 363 365 363
362 362 361 359 357 359 358 358 357 356 355 354 354 353 355 356 357 356 357 356 357 359 361 362 363 364 362 363 364 360 362 361 360 359 360 362 362 362 362 364 363 362 362 363 365 364 363 361 362 362 363 361 362 361 361 363 364 362 360 362 363 363 362 362 361 363 359 356 358 362 365 365 365 364 365 361 362 364 366 366 367 366 367 365 363
362 361 361 359 357 359 358 358 358 357 356 355 355 355 355 357 358 358 358 357 358 358 360 361 362 363 363 363 365 363 362 362 362 360 358 359 361 361 363 363 362 362 362 363 364 364 363 363 362 363 362 360 359 360 363 362 363 362 362 363 366 368 368 367 367 366 363 360 359 358 361 359 360 362 366 366 362 359 361 364 364 363 362 361 361
362 360 361 358 358 358 359 356 359 359 358 357 356 356 356 357 357 357 358 359 357 356 358 361 362 364 365 365 364 364 362 362 363 363 361 360 360 361 360 362 362 361 361 361 361 362 363 362 363 364 362 362 361 360 362 363 362 362 365 367 366 365 363 364 366 365 363 360 359 359 358 361 361 358 366 371 368 362 356 355 356 361 363 363 364
361 362 361 359 359 358 358 359 361 361 359 358 358 357 357 356 358 360 361 359 357 355 356 359 363 363 365 365 365 366 365 362 364 365 364 362 361 361 360 360 360 361 360 362 361 360 361 361 360 361 363 364 363 363 363 362 365 363 365 365 366 366 364 364 365 363 361 359 359 358 361 360 362 363 362 361 358 359 361 359 356 357 359 367 366
360 360 361 360 360 359 361 361 361 362 360 360 359 357 358 358 359 360 362 360 359 358 356 358 360 360 362 364 365 365 364 363 363 364 364 363 362 359 360 360 361 360 360 359 361 362 360 359 359 359 362 369 364 363 362 365 363 363 365 367 368 367 367 365 364 364 362 361 359 360 359 357 358 359 358 358 357 359 362 360 356 361 364 363 366
361 360 360 360 361 361 362 362 361 362 362 361 360 359 359 360 359 360 362 361 361 361 358 359 360 360 360 364 366 364 363 363 358 347 352 363 362 357 359 361 360 360 361 360 359 360 359 357 356 367 366 370 362 355 353 356 361 363 368 371 369 368 367 365 364 362 361 358 357 356 355 354 355 357 359 360 360 361 359 362 358 360 360 359 362
360 360 360 361 361 362 363 362 362 361 362 362 361 361 360 360 360 361 362 362 361 363 361 358 358 360 360 361 363 363 362 361 347 338 340 348 361 361 359 360 362 363 361 362 359 358 358 359 359 362 367 370 369 359 353 351 351 353 356 361 369 370 363 361 358 358 358 358 358 358 355 355 358 360 358 357 358 359 361 362 360 359 357 355 353
358 360 361 362 364 363 362 363 362 361 363 363 362 362 361 361 361 361 361 360 361 362 361 359 359 360 361 362 363 363 363 351 336 335 337 338 349 364 361 360 361 362 363 360 360 359 357 356 357 356 358 360 360 368 358 350 346 347 346 347 348 347 351 355 353 351 353 352 353 353 353 351 355 358 358 356 357 360 362 361 359 358 357 357 356
359 361 361 363 364 364 364 363 362 362 363 363 364 362 362 362 361 360 360 361 362 361 360 360 359 359 360 361 359 362 362 345 332 333 335 336 337 354 363 361 358 360 361 363 362 360 359 358 356 355 351 367 365 363 367 361 344 339 343 344 345 343 338 336 340 353 355 353 351 351 353 355 353 354 357 358 364 359 359 358 360 361 360 357 357
359 361 362 364 365 365 364 364 362 363 363 364 364 363 362 361 361 361 359 360 362 361 361 360 360 360 359 361 361 361 362 343 328 330 332 333 335 342 365 365 363 360 361 363 362 362 363 361 359 358 358 359 366 365 366 370 365 357 354 355 356 356 344 335 333 333 342 352 353 351 354 357 355 357 363 365 361 359 360 359 361 360 359 358 360
361 361 363 365 367 366 365 365 364 364 364 365 365 363 362 362 362 360 357 357 360 362 360 359 360 360 359 360 363 359 360 335 326 326 328 329 333 339 363 365 365 363 363 363 364 364 364 364 363 361 362 362 362 366 366 367 369 369 364 360 358 359 361 359 354 350 347 347 351 354 356 358 360 362 365 367 365 363 362 364 364 361 361 362 361
364 361 364 365 367 367 366 365 366 365 365 365 364 364 363 362 362 361 358 356 358 364 364 361 361 361 360 358 357 358 358 328 325 325 326 327 331 349 361 363 363 364 366 368 366 367 366 365 364 363 363 365 364 352 359 366 366 366 366 368 367 367 366 366 351 350 358 355 354 355 357 359 352 363 366 368 365 366 363 360 360 359 358 355 354
362 362 363 365 366 367 366 366 366 366 366 365 364 364 363 363 363 363 359 357 357 358 361 360 363 361 361 361 359 359 360 331 323 323 324 325 331 355 360 362 362 361 362 366 369 370 370 368 368 366 366 367 358 341 341 361 365 365 364 365 367 365 365 368 349 339 340 337 337 339 340 340 338 336 333 330 341 349 356 354 353 357 354 352 352
363 363 362 364 366 367 367 367 367 367 367 365 365 364 365 364 363 364 361 358 356 357 361 363 363 363 361 361 360 361 361 340 318 321 322 322 336 357 360 361 361 361 361 363 365 366 367 370 373 369 367 368 350 337 334 352 364 364 362 360 359 359 361 361 359 356 332 333 335 336 337 336 335 331 329 328 328 339 353 352 356 357 354 353 349
362 362 362 363 366 368 368 367 367 368 367 366 365 365 364 364 363 364 361 359 359 361 363 362 362 363 361 361 357 360 360 346 315 321 318 319 335 359 361 361 360 359 360 360 362 363 364 365 366 361 363 360 342 333 331 350 364 364 364 361 359 359 361 363 361 360 364 362 356 352 351 346 349 352 354 342 337 344 353 356 358 357 354 354 352
361 364 363 364 367 369 368 369 369 368 369 368 368 369 368 365 363 361 361 360 359 359 361 361 362 362 361 362 363 362 359 361 329 318 316 317 324 359 363 360 358 359 360 360 360 362 363 364 359 336 333 334 336 326 324 332 361 366 365 362 360 360 363 363 368 372 365 364 368 368 369 368 368 365 367 368 367 364 362 361 360 359 358 356 352
362 365 365 363 365 369 369 369 369 370 370 369 368 368 367 366 365 363 361 361 360 358 358 359 360 362 361 362 361 362 362 362 340 314 315 316 319 335 362 361 360 360 360 359 360 361 362 363 363 344 328 326 326 318 316 319 339 366 367 364 364 368 356 362 364 364 366 366 366 367 366 367 367 367 366 369 365 365 364 364 366 368 352 345 343
363 366 366 364 364 367 368 370 370 370 371 371 369 368 369 369 368 365 362 362 361 359 358 358 359 361 362 362 362 362 361 352 350 316 315 314 317 323 356 363 361 361 360 360 360 360 361 365 366 350 328 325 323 319 315 317 322 354 365 343 341 339 362 362 361 359 358 359 361 361 363 364 364 364 365 364 362 355 348 346 345 345 348 351 349
365 367 367 365 366 368 369 370 369 370 370 371 369 367 368 368 368 367 365 364 363 360 359 359 358 359 361 362 362 364 365 361 338 331 314 313 314 318 330 347 339 361 360 359 360 361 363 363 366 355 326 322 320 319 318 318 325 341 333 332 331 333 347 355 356 356 356 355 357 359 364 366 363 362 361 362 355 353 347 351 353 356 353 353 352
367 368 366 366 367 368 369 369 371 370 370 370 369 368 368 368 369 368 367 365 362 360 360 360 359 357 357 358 359 360 364 369 338 327 324 312 314 316 320 327 333 356 361 360 364 363 364 365 361 337 317 314 315 318 320 322 334 324 321 325 330 338 349 353 351 354 355 354 356 358 359 361 361 360 363 354 352 359 357 357 354 352 349 349 353
366 367 366 366 367 368 369 370 370 369 370 370 368 367 368 368 367 369 368 366 364 361 361 360 358 357 356 356 357 358 363 370 357 333 321 315 314 314 317 321 322 329 357 363 363 358 322 311 317 318 314 314 315 318 320 320 319 324 321 323 341 346 347 351 353 354 354 354 355 358 359 359 362 357 355 357 357 361 359 354 352 349 350 351 353
365 367 367 367 368 369 369 368 369 369 369 369 369 369 368 367 366 368 366 364 364 362 361 359 359 358 356 356 357 359 364 366 365 347 328 322 318 315 317 319 323 324 343 356 331 318 314 312 310 312 316 320 331 337 340 336 320 325 323 329 344 347 350 351 353 355 356 357 357 357 359 363 358 352 357 358 356 353 355 350 346 345 347 346 342
364 367 367 367 369 369 368 366 367 368 369 368 370 370 368 367 367 366 365 363 363 362 361 359 359 357 357 357 358 360 361 363 366 356 342 335 332 329 323 326 323 325 336 345 333 341 330 339 344 335 332 328 340 342 343 332 328 333 336 342 348 351 354 355 356 357 358 358 357 359 364 353 351 354 355 354 352 357 346 346 345 343 342 343 340
365 367 367 367 367 368 367 365 364 365 367 366 365 364 366 366 364 365 363 362 361 360 360 359 359 358 358 358 359 360 360 361 363 366 350 343 341 338 333 335 337 337 341 351 355 354 353 336 335 351 349 350 355 355 351 345 343 342 345 346 349 352 355 360 362 362 363 363 360 357 350 355 356 352 352 351 350 345 349 344 343 342 342 341 338
365 366 365 364 363 363 365 365 365 365 366 365 364 371 367 365 363 364 365 366 364 362 361 361 361 362 362 360 359 359 360 359 363 346 356 334 344 346 341 341 343 343 338 333 354 358 359 353 353 354 354 352 352 355 355 354 352 352 353 354 354 355 357 357 358 358 354 352 350 351 352 352 353 354 349 347 343 349 346 346 347 343 342 340 336
365 365 364 362 362 362 363 363 363 362 362 361 348 330 310 300 315 366 363 333 324 328 340 363 365 364 362 364 369 362 363 364 343 329 322 321 322 325 327 325 326 338 332 325 341 354 355 355 353 352 352 353 352 352 353 355 354 354 355 346 354 356 356 355 356 356 356 352 353 348 349 352 352 349 347 346 342 345 343 337 341 341 339 338 336
364 364 363 362 360 362 362 363 363 364 364 361 351 345 343 335 302 296 309 314 306 301 304 312 326 337 362 369 337 311 322 329 321 316 313 316 317 317 316 315 316 319 320 333 345 351 353 352 352 353 352 354 353 354 353 354 353 355 356 354 357 356 351 353 351 353 347 347 349 350 348 344 347 344 345 343 343 344 343 339 341 340 340 338 336
357 361 361 362 359 360 363 363 363 364 365 363 357 354 353 348 339 307 298 301 300 298 297 298 299 311 329 342 348 350 321 312 309 309 312 313 314 313 312 312 311 313 311 322 346 349 352 353 352 353 354 353 352 353 354 355 355 356 356 353 353 353 347 348 349 349 344 346 345 346 344 343 347 340 343 341 338 340 342 342 341 343 342 338 340
342 350 360 360 361 361 362 362 362 364 365 360 358 359 356 353 349 342 328 301 297 297 297 298 297 297 309 321 327 334 327 312 305 306 309 311 311 311 309 310 309 307 311 337 350 350 351 353 354 354 355 354 356 356 356 361 358 356 354 351 347 347 346 347 346 347 344 345 343 341 341 343 342 338 336 337 337 337 342 340 341 343 342 336 336
345 345 347 355 361 362 362 363 362 364 367 363 362 361 359 358 355 349 344 342 340 321 305 298 298 305 299 300 307 306 302 302 303 305 307 308 308 307 308 314 303 305 323 349 351 352 352 352 353 355 356 356 361 359 355 355 354 352 350 347 345 343 342 346 348 346 339 338 343 340 340 342 338 339 341 344 343 344 339 335 339 340 334 334 333
348 348 352 354 358 361 362 365 363 364 367 364 362 360 361 360 358 353 353 350 350 350 347 334 308 295 311 307 299 299 300 300 302 302 303 304 305 305 312 337 339 337 341 353 353 353 353 353 354 356 355 353 352 351 349 349 349 346 344 341 340 341 342 343 344 347 340 338 334 341 340 342 343 341 339 339 341 341 339 339 339 335 334 335 331
345 347 348 350 352 360 362 364 364 366 368 367 366 362 361 361 358 356 353 356 356 354 345 335 324 309 301 296 294 297 298 298 300 302 302 304 306 317 348 349 347 345 345 351 353 354 355 352 348 347 348 347 347 345 343 340 339 340 341 341 339 338 338 341 338 340 341 342 336 329 332 340 341 341 341 342 339 334 333 338 336 334 333 335 332
347 351 349 350 353 359 367 369 370 370 360 363 365 367 365 363 361 360 358 358 359 351 338 332 331 331 323 320 306 297 296 298 299 300 302 305 309 344 357 354 352 350 348 352 348 346 343 343 342 340 341 343 345 343 340 340 339 340 335 341 341 342 340 340 338 337 338 340 338 342 339 340 346 340 340 337 337 337 339 337 335 335 333 328 324
339 338 342 345 352 360 359 364 361 352 362 362 363 360 358 363 362 359 358 351 345 342 342 342 337 341 337 329 326 324 312 303 306 309 312 318 337 351 344 340 340 340 339 340 340 339 338 340 342 341 340 339 339 339 340 340 340 338 338 337 335 334 331 334 336 342 344 346 338 337 335 336 338 336 332 333 330 335 337 335 334 336 337 328 326
339 330 326 329 334 347 348 350 356 357 356 357 356 354 352 352 351 349 347 347 347 347 345 344 344 340 333 331 331 328 331 341 343 342 343 346 347 343 341 337 333 331 330 331 331 331 331 330 330 331 332 334 337 338 338 338 338 336 337 336 336 335 335 336 336 339 336 340 343 341 339 342 346 346 342 340 334 336 336 332 332 333 333 332 332
339 338 332 330 335 336 339 342 343 344 347 352 352 352 351 350 348 347 347 345 344 344 345 341 337 333 332 334 334 340 344 343 342 343 340 338 339 338 336 332 330 329 329 329 329 329 328 329 330 329 329 330 330 331 331 331 333 336 338 334 331 333 339 340 341 340 338 341 342 340 339 336 332 333 334 332 331 335 335 332 331 331 331 331 330
340 338 336 329 330 336 337 336 336 337 338 338 339 340 343 345 345 345 345 342 338 337 335 333 332 331 328 314 308 321 339 336 333 333 334 334 332 331 329 328 326 326 326 325 324 325 327 328 328 327 327 327 328 328 328 329 329 330 329 329 333 332 333 334 333 332 332 333 333 331 332 332 331 331 330 332 327 329 333 335 334 332 330 326 326
336 335 336 335 333 335 333 332 333 333 334 333 332 332 333 334 335 335 334 332 330 328 326 325 322 318 310 307 307 309 322 324 323 322 322 323 324 325 325 325 326 325 323 322 322 322 322 323 324 325 324 324 324 325 328 327 328 328 326 325 325 326 326 323 324 324 326 326 327 328 329 328 329 330 332 325 332 332 331 330 330 329 329 328 327
334 333 332 332 332 331 331 330 330 330 329 329 328 328 327 327 327 328 327 327 326 325 323 322 321 320 316 309 312 313 321 321 321 320 320 321 321 322 322 323 323 323 323 323 322 322 322 322 323 322 319 318 318 319 319 319 321 324 323 320 319 318 318 318 319 319 322 325 325 326 328 327 326 328 328 327 328 329 330 330 330 330 329 330 328
335 333 331 330 330 330 329 329 327 327 327 327 327 326 325 324 324 324 324 324 323 323 322 322 321 321 320 317 314 317 319 319 319 320 320 321 321 321 321 321 322 322 322 322 322 322 320 318 317 317 317 316 316 315 314 314 314 313 314 315 313 313 312 314 314 314 316 319 322 324 326 327 327 330 328 327 327 325 325 327 327 327 327 328 329
334 332 331 329 329 329 328 328 328 327 326 326 326 325 325 324 323 322 321 321 321 321 322 322 322 320 319 319 319 318 318 317 317 318 318 318 319 319 320 321 320 320 320 319 318 317 317 317 318 315 314 315 315 313 311 310 309 308 307 306 306 306 306 307 309 313 316 317 318 320 323 327 327 327 325 326 325 325 324 326 326 324 326 325 326
331 330 328 327 326 325 326 326 326 325 324 323 322 322 323 324 323 322 320 320 320 319 319 319 319 318 317 317 317 317 317 317 317 317 317 317 318 318 318 318 318 318 317 318 318 318 318 316 315 314 314 310 308 307 307 304 304 303 304 304 303 302 303 305 308 312 314 315 316 318 321 323 324 325 324 325 324 324 324 325 325 324 324 324 324
333 329 328 326 325 324 322 321 321 322 321 320 319 319 319 320 321 321 320 320 318 317 315 315 315 314 314 314 314 314 314 314 314 314 315 315 315 315 315 315 314 315 315 315 314 312 312 312 309 308 306 305 305 303 301 300 300 302 300 301 300 299 299 300 306 308 308 310 313 317 320 323 323 322 322 322 323 322 322 322 322 323 323 322 322
329 329 326 325 324 324 322 320 318 319 318 318 317 317 316 317 317 319 319 319 317 316 314 313 312 312 312 312 312 311 310 310 310 310 311 311 313 314 314 313 312 311 310 310 309 308 307 308 308 305 304 303 301 300 299 299 298 298 298 297 296 295 295 298 305 303 302 304 310 315 319 321 322 322 321 322 322 321 321 321 321 320 320 320 320
321 320 321 321 320 319 319 319 318 317 316 316 316 315 315 315 315 316 316 316 315 314 313 311 310 310 309 308 308 308 309 308 307 307 308 309 309 309 310 310 311 311 310 308 307 307 306 305 304 304 302 302 303 300 298 298 297 297 296 295 294 293 291 294 297 296 296 303 307 311 317 320 321 323 322 322 321 321 320 320 318 317 317 318 319
318 318 316 315 316 315 315 314 314 315 316 315 314 313 314 313 314 313 311 310 310 310 310 310 309 309 309 308 307 307 306 306 305 305 306 306 307 308 307 307 307 307 308 309 308 306 306 306 305 303 303 301 300 299 298 297 296 295 294 292 291 290 290 292 295 294 295 299 305 310 314 315 317 317 317 317 317 317 315 314 314 314 315 316 317
315 314 313 313 311 310 310 309 309 308 308 310 310 309 308 307 307 308 308 307 306 306 306 305 305 305 305 306 306 305 306 305 305 305 305 305 305 306 307 307 306 306 307 307 306 305 305 304 303 303 302 302 301 300 298 297 295 294 292 290 289 289 289 290 293 290 290 293 306 311 309 310 311 310 309 308 308 309 311 313 314 312 310 310 312
Wind_Speed
21 18 17 17 17 18 18 16 17 15 15 14 13 13 12 12 12 11 9 10 9 10 8 9 10 10 10 10 11 9 8 9 7 6 7 6 6 5 4 5 7 6 5 5 5 4 5 4 3 3 3 3 3 3 3 3 4 4 4 3 4 3 4 4 5 6 4 4 5 5 6 5 6 4 6 6 5 4 6 6 6 6 6 6 7
20 18 17 17 19 19 19 18 17 15 17 15 14 14 13 12 11 11 12 10 10 11 10 9 10 11 11 10 9 9 9 9 9 7 7 7 7 7 7 5 5 6 5 5 6 5 3 3 4 3 3 4 4 4 4 4 4 5 6 6 5 5 5 5 5 5 7 3 4 4 4 5 6 4 5 6 6 5 7 5 4 4 5 6 7
21 17 17 17 18 18 18 17 17 18 20 17 19 18 15 14 12 12 13 12 11 10 11 11 10 10 11 9 9 9 9 10 9 8 8 8 8 8 7 8 6 6 7 6 6 5 5 4 4 4 4 5 5 5 5 4 4 4 2 3 5 5 5 6 5 5 6 5 3 5 4 3 3 4 5 5 5 5 5 4 5 4 4 5 6
20 19 19 20 21 19 18 17 20 20 20 17 19 19 17 16 13 14 14 13 12 11 11 12 10 10 11 10 10 9 9 10 10 9 9 9 9 9 8 7 8 7 7 7 7 6 7 6 6 5 5 5 4 3 4 4 4 3 4 5 3 3 2 2 3 4 3 5 3 4 3 5 5 5 5 6 7 6 6 6 6 7 8 7 7
20 21 21 22 21 19 21 20 20 21 20 18 20 20 18 16 14 16 15 14 13 12 10 11 10 10 11 11 10 11 10 11 11 11 10 9 10 10 9 7 7 7 8 7 7 7 7 7 7 6 5 5 4 5 4 5 4 4 4 4 4 4 4 4 5 4 4 6 5 4 4 4 4 5 6 8 8 6 5 5 5 5 5 6 7
21 20 20 21 20 22 21 20 21 22 21 19 20 19 18 17 16 15 15 15 12 13 12 11 11 11 11 11 10 11 10 10 11 11 12 11 10 10 9 9 8 7 7 8 7 7 7 7 7 6 6 6 6 5 5 6 5 6 5 4 4 3 3 4 4 4 5 6 6 7 5 6 6 5 5 6 7 7 5 5 5 6 6 7 7
18 20 21 21 19 21 21 20 19 20 19 18 17 17 18 18 18 17 15 15 15 14 14 12 11 11 11 11 11 10 11 11 10 11 11 10 10 10 10 9 9 8 8 8 9 8 9 8 7 7 7 7 7 6 6 6 5 5 5 4 4 4 5 5 4 4 5 6 6 6 7 6 6 7 4 4 4 6 8 7 6 6 7 7 6
18 18 19 18 18 21 20 19 18 17 16 15 14 16 16 16 15 14 13 15 16 14 15 15 11 12 12 12 11 10 11 11 10 11 11 10 10 10 10 9 10 9 8 9 9 9 9 9 10 8 8 7 7 5 5 5 4 5 5 5 4 4 4 4 4 5 5 5 5 5 4 5 4 5 6 6 7 7 7 6 6 4 5 3 5
18 19 18 17 17 18 16 16 15 15 15 15 14 15 15 14 13 12 13 13 13 14 14 15 14 13 13 12 12 11 12 12 11 11 11 11 10 10 10 10 10 9 9 9 9 9 9 8 9 10 8 12 13 11 9 8 5 5 5 4 4 4 4 4 5 5 5 5 6 5 6 6 6 6 6 6 6 6 3 4 5 5 4 4 3
16 18 19 18 16 16 15 14 15 15 15 15 14 14 14 13 13 12 13 14 12 12 12 12 16 15 14 13 13 12 11 11 12 17 15 11 11 10 9 9 10 8 8 8 9 10 10 10 10 13 14 15 16 16 16 15 12 8 4 3 5 4 4 4 4 5 5 7 6 6 6 6 6 5 4 3 4 4 5 3 5 6 7 7 5
17 17 17 16 15 15 14 14 14 15 15 15 14 14 13 13 12 12 12 14 13 11 11 12 15 15 15 14 15 14 13 12 17 16 17 16 12 10 9 8 9 9 9 7 8 9 8 9 8 10 9 8 10 15 15 15 15 13 11 8 4 3 3 3 4 4 5 6 6 5 6 6 4 4 4 5 4 4 4 4 5 6 7 9 9
18 16 16 14 14 16 15 15 15 15 15 15 15 15 13 12 13 13 12 14 13 12 13 12 11 13 14 15 15 14 13 14 18 18 17 17 14 11 10 8 8 9 9 9 8 8 8 8 8 8 7 7 6 8 12 15 15 14 13 12 12 11 8 7 7 7 6 6 6 6 6 7 6 5 5 6 5 5 4 4 5 6 7 7 7
17 15 15 15 14 15 14 15 16 15 16 15 15 14 14 13 13 14 14 12 13 13 12 12 11 11 13 14 14 14 13 15 17 20 19 19 18 13 9 8 8 8 9 10 9 8 8 8 8 7 8 12 11 8 8 9 12 15 14 14 13 13 13 12 11 10 7 7 8 8 7 6 7 7 7 6 4 5 6 6 4 3 5 7 8
15 15 15 15 15 15 15 15 16 16 15 14 14 15 15 14 14 13 13 11 12 13 14 13 11 11 11 12 13 12 13 13 18 20 20 21 20 16 10 9 9 9 8 9 10 9 8 8 8 8 7 6 4 7 7 7 7 8 8 6 7 11 13 14 15 15 12 9 8 9 8 7 9 8 7 5 6 7 5 5 4 5 5 6 7
13 14 14 14 14 14 15 15 15 14 15 15 14 15 16 14 14 13 14 13 11 12 13 13 12 12 12 10 11 13 14 15 18 20 21 21 21 17 13 10 8 7 7 8 8 9 9 9 8 8 7 6 6 6 6 6 6 6 7 7 9 9 9 9 9 9 8 8 9 11 12 11 10 9 7 6 8 9 7 6 4 4 5 5 7
13 14 13 14 15 15 15 15 14 14 15 15 15 16 15 15 15 13 12 13 12 10 10 11 12 12 12 12 11 12 12 17 20 20 22 21 22 11 11 11 10 8 6 6 7 7 8 8 8 9 8 7 9 12 9 6 5 6 7 7 8 9 9 11 15 13 11 11 11 11 11 12 11 9 7 6 4 3 4 5 6 6 6 6 6
13 15 15 15 15 16 16 16 15 15 15 15 16 16 15 15 13 11 12 13 13 14 13 14 11 12 12 11 13 10 10 13 19 22 22 23 15 11 14 11 10 10 8 6 5 5 6 7 7 8 8 8 10 12 12 9 6 7 6 7 7 7 6 4 11 17 18 16 17 18 18 17 13 9 9 7 4 1 2 4 7 6 6 6 6
14 16 17 17 16 16 15 16 15 15 15 16 16 15 14 12 14 13 14 14 15 15 14 13 12 13 13 13 13 10 9 11 19 20 23 22 19 14 13 11 11 10 8 8 6 6 7 11 9 8 8 7 11 13 13 10 7 8 8 7 7 7 6 6 8 8 17 20 20 19 15 11 10 10 9 9 11 4 3 6 7 4 6 6 7
16 17 18 18 15 15 15 15 15 15 15 15 15 14 15 14 13 12 14 14 13 12 12 13 13 12 15 15 16 13 12 10 18 19 20 20 18 12 11 10 10 9 9 9 9 8 8 10 14 12 10 10 11 12 14 12 9 9 8 7 8 8 7 6 5 7 4 2 5 4 4 8 8 7 9 15 14 8 7 8 6 5 6 5 6
16 16 16 15 14 14 15 15 15 15 15 15 13 13 12 13 14 14 14 13 12 13 13 13 14 13 12 13 12 14 15 8 15 20 20 20 21 13 9 10 11 11 10 9 9 9 10 9 11 16 17 14 11 11 13 15 10 8 7 8 8 8 6 6 4 1 2 3 3 2 3 4 6 7 7 7 7 8 9 8 7 5 4 5 3
13 13 14 16 16 16 15 15 16 15 15 14 15 14 13 14 14 14 15 14 12 12 13 13 14 12 13 12 13 15 14 11 14 21 21 22 23 18 11 12 11 10 10 9 9 9 9 10 10 13 18 18 15 13 13 15 12 8 8 8 7 3 4 2 3 5 2 2 2 3 3 3 3 4 4 3 5 6 7 6 1 0 2 3 3
12 13 15 16 17 17 17 14 15 14 14 13 14 14 13 14 13 15 15 13 13 13 11 11 12 12 11 12 11 12 14 18 11 18 22 23 23 24 13 13 13 11 11 9 10 10 10 8 9 11 18 19 19 17 16 14 15 9 9 9 4 1 2 1 1 2 4 4 3 3 3 4 3 4 3 4 3 2 4 5 4 3 2 3 1
13 13 14 15 14 15 15 16 14 13 14 14 15 14 13 14 13 13 13 12 12 12 11 10 10 10 10 9 9 10 10 13 17 16 20 22 23 23 22 15 17 12 11 11 10 10 9 9 8 13 18 20 20 19 17 17 11 10 13 7 2 1 1 3 4 5 4 5 5 5 3 2 3 3 4 4 2 2 4 2 2 2 3 2 4
13 13 14 15 14 15 15 15 14 13 14 14 14 14 14 13 12 11 12 11 11 11 11 11 9 9 11 10 10 9 9 8 14 21 18 23 22 24 23 19 17 13 12 10 8 9 9 8 9 12 16 18 19 19 19 17 12 14 10 9 4 2 3 4 5 5 5 5 5 5 5 5 5 5 1 3 2 1 1 1 3 5 5 4 2
14 14 15 15 14 14 14 14 14 14 14 15 14 14 14 14 11 11 12 11 10 11 11 11 11 10 9 9 9 9 8 8 8 15 23 22 24 24 24 22 16 17 12 9 9 1 5 7 5 7 13 16 18 17 12 11 11 8 10 10 8 4 5 5 5 5 6 7 6 6 6 7 5 3 3 2 1 1 1 3 4 3 3 2 1
15 15 15 14 14 14 15 16 15 15 15 13 13 12 13 13 12 11 12 11 10 11 11 10 11 11 10 10 9 9 8 8 8 9 12 18 19 23 23 23 19 16 15 6 6 8 7 9 9 9 7 5 5 5 5 7 11 10 9 9 6 6 6 6 6 7 7 7 7 6 7 4 5 3 3 2 2 3 2 3 3 2 2 2 3
14 14 15 14 13 13 15 13 13 14 14 12 12 11 12 11 11 11 11 12 11 11 11 11 11 11 11 10 9 8 9 8 9 8 8 7 7 10 12 13 16 12 7 3 6 5 6 4 4 5 6 9 5 6 5 8 7 4 5 6 6 6 7 7 8 8 7 6 5 4 1 4 5 3 3 2 3 2 4 3 1 2 3 2 2
14 15 16 14 13 14 14 16 16 13 13 14 14 15 12 13 13 12 13 13 14 12 12 12 12 12 12 11 9 9 10 9 10 9 9 8 8 8 9 8 8 8 8 7 7 6 5 4 5 4 5 4 4 4 4 5 6 6 6 6 6 6 8 11 12 7 4 3 1 3 4 2 2 3 3 3 3 4 3 3 1 1 2 2 2
15 16 16 15 16 13 14 13 14 13 13 14 13 9 11 15 14 12 13 12 12 12 13 11 11 11 10 10 10 10 10 10 10 9 14 16 14 10 8 8 8 7 13 15 9 7 5 5 6 6 5 6 5 6 6 6 6 7 8 7 7 8 8 5 5 5 4 4 4 2 2 2 2 2 1 3 3 2 4 3 2 1 1 2 4
14 14 14 14 14 14 13 14 14 14 14 14 8 6 9 12 5 8 12 5 5 4 8 10 10 10 9 10 9 11 11 9 7 13 19 20 19 21 20 18 17 14 16 19 13 9 9 7 7 7 7 7 8 7 8 8 8 9 8 8 8 7 6 5 4 4 4 4 3 3 2 2 1 3 2 2 4 2 3 4 2 2 2 4 3
11 12 12 13 14 14 14 13 14 12 13 11 9 8 6 7 13 14 10 7 8 10 8 6 4 4 9 7 4 7 3 9 13 15 18 20 20 19 18 18 18 19 17 13 8 10 8 9 9 8 8 8 8 8 8 9 8 7 7 7 6 4 4 4 3 2 5 4 3 1 2 3 2 3 2 1 2 0 3 4 4 3 4 2 1
8 10 12 12 12 13 12 12 13 12 11 10 10 11 9 8 6 12 12 10 10 11 10 9 7 4 1 7 9 3 3 2 13 17 18 20 20 20 19 19 18 17 15 18 11 9 8 8 9 9 8 9 8 8 8 8 8 7 6 7 5 3 5 3 4 5 5 4 3 2 3 3 2 4 2 2 2 2 2 2 2 1 0 1 0
11 13 10 12 12 13 13 12 13 14 11 13 13 12 11 9 8 6 6 10 12 12 12 12 11 9 7 6 9 9 10 9 11 15 18 20 19 19 18 18 17 15 15 11 9 9 9 8 7 7 8 8 8 8 8 5 4 5 6 5 5 4 5 6 5 4 3 3 3 3 3 3 2 4 2 2 2 4 2 1 2 2 1 1 2
8 8 12 12 13 14 14 13 14 13 11 12 12 12 12 10 9 9 8 6 5 8 12 14 13 11 12 9 8 12 12 11 10 13 15 16 15 13 13 7 9 12 14 11 9 8 8 8 8 7 8 7 3 2 3 4 4 5 7 5 4 8 9 7 2 2 3 2 2 2 3 2 4 3 2 2 1 1 2 4 3 2 3 1 1
6 8 22 23 12 14 12 13 14 13 11 12 12 13 11 11 10 9 9 8 8 6 6 4 10 14 8 7 8 10 12 13 13 13 13 14 15 16 15 11 7 1 2 5 7 6 7 7 7 3 3 4 4 4 5 5 6 6 8 7 8 10 8 5 2 2 2 1 6 2 3 1 2 2 2 1 2 1 1 0 1 3 2 2 2
5 4 9 19 16 13 11 12 12 11 10 11 12 11 10 10 10 9 9 8 8 8 6 5 4 6 12 13 12 9 8 9 13 15 16 17 17 18 10 7 6 6 5 6 6 4 2 4 5 4 3 5 5 5 6 8 8 8 7 7 7 7 6 5 8 4 5 3 3 5 3 0 2 1 0 1 2 5 5 2 0 0 3 2 1
5 7 10 10 11 10 7 9 9 9 8 10 9 8 9 10 9 9 9 9 8 7 7 6 5 5 7 7 8 10 9 10 9 10 11 14 13 7 5 7 6 7 6 4 5 5 5 5 5 5 5 5 5 6 6 6 7 7 7 6 3 3 4 6 7 6 4 3 5 2 2 3 2 3 1 0 2 1 1 2 3 2 2 5 4
7 8 4 2 8 5 2 5 9 12 9 9 8 7 6 4 7 7 6 7 9 9 8 7 6 6 5 3 2 3 7 10 14 11 7 4 2 3 5 7 7 7 7 6 6 7 6 5 5 5 5 5 6 6 6 6 7 6 8 7 5 6 8 7 5 2 1 1 5 4 5 4 4 4 5 4 5 4 1 0 1 1 1 3 4
4 11 13 10 5 3 3 5 7 10 10 9 8 9 10 9 8 9 9 8 8 8 8 7 6 6 5 5 5 7 9 7 6 7 6 4 5 5 6 7 8 7 7 7 7 7 6 6 7 8 7 7 6 5 5 5 5 5 5 6 4 3 3 3 4 4 4 2 2 2 3 1 1 2 2 1 2 1 1 3 2 2 0 1 0
3 4 8 12 8 9 8 8 9 9 7 9 9 9 9 9 9 9 9 8 8 8 8 7 6 6 6 7 7 5 6 9 7 6 5 6 7 7 7 7 7 7 6 6 6 6 8 7 7 8 7 7 8 7 8 8 7 4 5 6 6 4 1 1 1 2 2 2 2 3 5 6 7 5 5 6 6 3 1 2 1 2 2 2 3
4 6 7 8 7 6 8 10 10 8 9 9 9 9 9 9 8 7 8 8 8 8 8 8 7 6 5 6 8 5 6 7 7 7 7 8 8 8 8 7 7 7 7 7 7 6 6 7 7 7 8 8 7 8 8 8 7 7 7 5 4 5 5 3 4 5 6 6 6 7 5 5 5 5 4 5 6 6 4 2 1 0 2 4 6
10 10 9 9 9 8 9 11 10 12 11 11 11 10 9 9 8 8 8 8 9 9 9 9 8 7 13 20 18 18 12 7 7 8 9 9 9 8 8 8 7 7 7 8 7 8 8 8 8 8 8 8 8 8 8 7 7 6 7 8 8 7 7 8 9 8 8 8 7 6 5 6 5 4 4 4 4 4 5 6 5 5 4 5 5
9 9 11 11 11 11 10 10 11 11 10 11 12 12 12 12 10 9 9 8 8 9 9 10 9 9 11 14 16 16 11 10 9 10 9 9 9 8 8 8 9 9 8 8 8 7 7 8 9 9 9 9 9 9 9 9 8 7 7 7 8 7 7 7 7 7 7 6 6 6 5 4 4 3 4 5 5 5 5 5 5 5 6 7 7
9 9 10 11 10 10 10 11 12 11 11 13 13 12 12 12 11 11 10 10 8 9 9 9 9 10 9 10 12 12 10 9 9 9 9 9 9 9 9 9 9 8 8 8 8 8 8 9 9 9 10 10 10 11 10 9 9 8 8 8 8 8 8 7 7 6 6 5 5 5 4 3 2 2 2 2 2 4 4 5 5 5 5 5 5
10 10 10 11 11 10 10 10 11 11 12 11 11 10 11 11 11 10 10 9 9 8 8 8 9 9 10 10 10 11 10 10 9 9 10 9 9 9 8 8 9 9 9 9 9 9 9 9 9 10 11 9 9 10 10 10 10 9 8 8 7 6 6 6 5 5 4 5 5 4 4 2 2 3 3 3 4 4 4 4 4 4 5 5 5
10 11 12 11 11 12 12 11 11 11 11 11 12 12 10 10 10 10 10 10 9 9 9 9 10 11 11 10 10 10 10 10 9 9 9 9 9 9 8 8 9 10 9 9 8 9 9 10 10 9 8 9 10 9 8 8 9 9 8 7 6 6 5 4 4 5 5 5 4 4 4 3 3 2 3 3 4 4 4 4 4 4 5 5 5
11 11 11 11 11 12 12 12 11 9 9 10 10 11 10 11 10 10 10 11 10 10 9 9 11 11 11 11 11 10 8 8 8 8 9 9 9 9 9 10 11 10 9 9 9 9 10 10 9 10 11 10 10 10 9 8 7 7 6 6 6 6 5 5 5 6 5 5 4 4 3 2 2 3 4 4 3 4 4 4 4 5 5 5 5
11 10 11 12 11 11 10 9 11 12 10 9 9 10 9 10 10 9 9 9 10 9 9 10 10 11 11 10 9 9 8 8 8 8 8 8 8 8 9 10 10 9 8 9 9 10 10 9 9 10 11 10 10 9 8 7 7 7 7 6 6 6 7 7 4 5 4 4 4 4 4 3 1 1 2 2 2 2 3 4 4 5 6 6 6
11 12 11 11 11 10 9 9 9 9 9 9 9 9 9 9 9 9 9 9 9 10 9 9 9 10 11 11 9 9 8 8 8 8 8 7 7 8 8 9 10 9 9 10 10 10 10 9 10 10 9 9 8 8 8 8 8 7 7 6 8 11 9 9 5 6 7 5 4 4 3 3 3 2 2 2 2 2 2 4 4 5 5 6 6
11 11 11 11 10 9 9 9 9 8 9 9 9 8 9 9 8 9 10 9 9 9 8 8 9 9 10 10 10 9 8 8 7 7 7 7 7 7 9 9 10 9 9 9 9 10 9 9 9 9 9 8 9 9 9 8 8 7 7 7 10 11 12 11 9 10 7 4 4 4 3 4 4 5 4 5 5 5 5 4 4 4 4 5 6
11 11 11 10 10 9 8 8 9 9 8 8 8 9 9 10 9 8 8 9 9 9 9 10 10 11 11 10 9 8 8 8 8 8 8 8 9 8 8 9 10 9 9 9 10 10 9 9 9 9 9 9 8 8 8 8 8 7 8 11 13 14 13 13 9 13 13 8 4 3 5 5 5 5 5 5 5 5 5 5 4 5 5 5 6
Wind_Direction
189 188 188 188 183 183 185 185 189 188 190 190 190 194 197 199 197 203 199 201 197 202 201 189 182 190 198 199 201 192 189 195 196 189 192 199 209 217 231 189 190 198 209 238 245 231 208 205 219 221 225 250 232 245 255 241 206 194 195 201 221 219 212 210 234 263 268 240 264 273 291 297 293 287 293 285 282 262 231 237 240 244 247 248 256
189 186 188 188 188 185 187 185 187 188 192 191 193 192 197 198 198 195 204 199 197 198 201 193 185 187 199 197 204 191 186 187 191 192 189 199 206 213 220 232 192 198 203 215 225 252 255 206 212 222 219 225 242 240 232 250 241 210 191 205 204 217 205 222 234 246 268 266 267 274 277 273 280 263 261 267 271 263 259 251 238 230 235 241 250
189 184 186 186 186 183 185 186 186 189 192 193 196 197 196 198 196 197 201 203 194 199 195 197 188 189 197 197 199 196 184 187 191 194 193 197 202 210 210 209 216 203 205 214 220 221 240 243 228 219 226 231 222 232 251 264 280 297 287 196 205 214 217 212 224 243 262 266 259 281 278 288 292 315 312 306 304 302 297 289 280 275 262 257 266
188 185 186 188 186 181 182 184 187 189 192 192 195 197 197 198 195 198 200 204 197 194 194 193 191 191 195 197 194 197 186 186 192 198 197 196 200 208 215 208 205 213 212 210 217 220 221 221 233 231 221 226 226 230 225 231 251 257 263 268 270 271 271 257 221 239 245 270 245 247 270 276 273 269 277 275 282 287 282 281 277 278 279 278 277
187 186 187 187 185 183 185 185 188 190 192 194 196 197 196 195 194 198 199 203 200 190 193 191 192 193 195 197 193 194 190 187 190 199 202 199 199 205 211 218 214 207 210 215 217 216 219 222 221 223 234 230 221 221 228 242 227 230 246 246 234 231 237 237 252 256 262 268 274 253 254 262 266 267 263 270 267 258 253 253 257 260 260 265 274
189 185 186 186 185 185 185 186 188 191 193 194 196 196 197 194 194 194 198 199 199 189 190 191 192 195 197 197 195 191 193 191 191 199 204 202 199 203 206 211 218 217 210 210 217 222 227 220 221 223 221 224 229 224 222 224 224 229 240 247 243 243 236 234 231 234 246 256 261 276 257 262 264 247 244 249 267 274 267 258 258 260 263 265 259
187 185 186 188 185 187 187 188 188 191 191 193 193 193 196 196 195 195 196 198 198 195 189 191 191 195 195 196 199 192 193 195 195 199 204 205 200 200 208 206 211 215 216 215 220 221 224 226 224 220 226 223 221 221 219 223 229 241 234 232 228 230 246 261 256 258 257 260 261 258 266 251 244 266 254 248 264 267 275 277 274 256 245 247 260
186 183 186 187 186 188 189 187 187 188 190 190 190 192 195 197 194 192 192 197 199 200 191 190 189 194 194 196 199 196 193 196 198 199 203 206 201 199 203 208 208 211 213 214 220 226 221 224 229 222 221 224 222 223 220 229 223 225 223 228 236 240 250 249 248 248 254 266 267 279 276 284 289 284 282 275 271 275 260 260 270 274 267 250 262
186 184 185 188 186 188 186 186 185 185 187 187 191 192 193 194 193 188 186 195 199 201 198 189 192 195 198 196 199 201 197 200 200 199 201 206 209 204 200 205 211 210 209 214 214 220 230 230 223 228 216 210 212 213 221 222 229 227 224 223 223 229 229 226 240 242 251 260 272 272 276 275 266 268 272 262 257 264 279 287 288 294 305 300 281
186 186 187 189 186 184 183 183 183 183 183 186 191 191 191 191 192 191 184 190 196 199 204 188 189 193 196 193 197 202 202 202 201 198 197 202 207 212 204 203 209 214 209 210 215 214 221 231 238 229 223 213 206 208 211 216 218 222 229 212 218 217 222 240 246 252 256 260 261 262 266 268 266 260 270 279 294 296 300 327 327 323 317 302 291
186 187 189 188 183 181 181 183 181 183 184 185 187 191 192 188 190 191 186 186 191 195 203 197 190 193 196 197 197 202 205 205 194 192 196 200 204 210 210 203 202 208 214 211 214 219 219 221 230 245 246 229 209 208 211 215 217 222 225 228 218 206 231 241 253 264 267 264 264 260 263 275 287 303 299 306 307 317 324 334 318 319 311 317 314
188 187 186 183 181 182 183 181 182 184 183 185 185 189 191 189 189 190 190 185 187 191 199 204 196 189 194 199 199 201 206 202 185 187 191 198 204 208 212 212 204 205 210 215 216 216 224 228 227 229 227 228 219 197 209 213 217 222 227 231 235 240 229 225 245 257 254 261 263 262 275 274 286 289 291 297 299 304 307 309 298 295 305 312 307
186 185 183 182 182 183 182 182 183 183 186 184 183 185 189 191 190 190 192 186 183 190 197 201 203 199 191 195 202 202 206 200 182 183 188 193 202 208 213 214 215 209 205 211 216 217 217 223 237 238 237 220 218 209 194 207 214 218 221 225 236 238 242 241 233 234 245 247 253 261 253 268 271 267 264 267 284 292 291 284 277 294 309 300 292
184 181 182 180 181 182 183 185 184 185 184 182 181 184 188 193 192 191 191 188 186 190 195 200 204 207 203 193 196 203 208 191 182 184 187 192 198 201 213 213 214 217 212 207 210 216 215 216 220 231 237 242 223 210 205 197 196 208 211 219 229 239 239 238 239 238 233 237 245 249 251 238 243 251 256 258 265 266 270 272 282 282 281 284 298
180 180 181 178 178 182 185 187 187 184 183 183 183 186 189 190 192 191 193 194 189 189 194 199 203 207 210 204 193 200 212 181 179 184 189 192 197 198 209 215 220 220 218 214 210 209 213 217 220 225 225 227 229 218 208 207 195 190 200 212 224 232 231 228 222 216 208 219 227 237 244 243 246 249 255 255 255 259 252 257 277 290 287 291 283
175 176 179 179 180 184 185 187 187 185 183 184 185 187 189 190 190 188 192 197 196 187 193 203 203 206 208 210 212 203 208 173 180 183 189 194 193 191 205 214 222 230 229 227 216 209 210 212 215 220 224 227 219 218 218 210 207 212 209 214 218 222 224 220 217 213 212 208 217 224 227 231 232 232 236 249 278 305 325 322 310 298 296 283 281
179 176 181 181 181 183 186 187 187 185 184 185 188 188 188 188 190 188 191 194 193 193 195 202 205 207 207 208 215 214 209 177 180 184 188 192 183 191 204 210 218 221 230 235 242 233 220 214 215 218 217 220 216 206 213 204 220 220 222 229 237 250 251 248 214 212 213 210 216 219 228 229 230 241 265 273 251 24 347 312 284 284 286 295 291
187 180 183 183 182 183 185 186 187 185 185 189 189 189 187 186 189 188 191 193 197 195 195 199 204 208 207 208 209 211 213 176 183 186 189 185 181 190 199 205 215 219 225 230 237 242 242 236 230 228 227 224 210 200 201 195 214 220 226 237 245 251 254 251 263 234 210 216 216 220 229 247 263 272 267 265 261 202 210 252 267 286 283 281 290
188 184 185 184 181 180 183 185 187 186 188 190 189 187 189 187 189 187 193 198 199 193 191 197 203 207 209 209 206 205 216 180 185 182 188 182 186 194 194 203 209 214 217 224 224 233 236 235 234 233 231 227 219 201 198 192 211 215 222 230 239 244 245 256 259 274 279 214 234 240 253 244 245 248 254 254 254 226 212 235 248 236 253 280 299
191 187 182 180 177 177 184 185 187 187 185 186 187 186 184 187 190 191 195 197 198 197 192 196 203 207 207 208 201 203 211 185 181 183 181 183 188 191 191 196 206 208 212 215 218 220 226 232 224 224 230 232 218 199 199 200 206 214 214 222 228 232 239 240 243 9 21 311 319 226 216 193 201 213 223 232 234 232 232 222 224 236 263 274 295
187 178 180 182 181 179 183 184 186 187 186 184 187 187 188 190 189 189 194 198 198 200 198 195 202 205 209 207 208 203 209 198 176 183 183 183 191 190 193 199 200 205 208 212 218 219 218 220 229 211 214 222 217 201 195 203 211 214 211 219 223 176 62 307 309 319 315 352 323 304 295 281 258 261 264 248 237 247 252 226 156 101 7 25 1
182 176 177 184 185 182 183 182 184 184 186 184 185 190 190 191 190 188 195 195 196 197 198 195 198 202 208 204 207 206 198 203 165 189 186 187 189 194 194 200 197 200 205 215 217 224 224 215 217 207 202 210 215 208 202 198 208 212 221 219 219 66 270 42 312 299 281 269 271 269 266 251 252 253 267 275 299 33 52 68 71 51 58 87 50
178 174 174 182 184 183 183 180 182 184 186 187 187 190 189 193 192 187 194 195 194 195 196 198 197 197 200 203 203 206 198 197 169 178 191 190 192 197 201 197 196 196 209 216 215 223 221 224 225 202 195 204 209 210 207 207 200 214 222 226 242 27 309 268 279 276 271 262 251 245 249 266 259 258 246 260 93 22 45 43 47 52 67 41 28
171 171 174 181 182 183 183 183 182 185 186 186 190 189 189 192 189 187 190 191 190 193 193 198 202 201 200 200 203 204 203 188 172 175 182 191 196 198 205 208 185 202 205 220 217 219 226 221 223 203 193 200 204 207 210 205 205 216 221 237 242 201 229 224 236 232 230 240 242 236 236 236 242 241 191 81 92 108 91 74 59 41 27 356 318
170 170 176 180 183 183 182 184 184 186 187 187 189 190 187 188 189 185 187 192 192 191 192 193 199 204 205 203 203 205 195 177 155 178 179 188 195 200 205 207 205 197 206 218 232 232 92 94 85 176 191 195 200 205 210 206 208 202 202 206 195 193 195 210 218 206 213 222 225 227 229 233 232 92 110 118 142 195 97 53 49 38 334 319 1
170 172 175 179 184 183 181 186 185 189 189 188 189 190 188 186 188 183 185 191 192 191 191 191 196 202 207 209 206 201 191 186 161 167 185 188 194 199 202 206 209 206 209 197 109 116 124 95 99 105 118 142 145 158 179 184 193 193 188 179 186 199 200 199 209 215 215 212 215 221 226 230 100 149 154 168 118 96 88 75 48 327 323 350 5
171 170 173 179 184 185 182 187 186 188 189 184 184 186 189 188 188 184 185 191 192 192 189 190 194 198 205 207 206 201 196 193 177 165 162 167 187 196 205 214 217 215 228 147 149 132 141 154 131 145 129 161 168 157 151 136 150 172 181 193 197 206 207 207 204 209 211 213 217 228 30 86 133 160 153 135 118 89 87 98 57 353 352 359 348
173 174 174 178 184 186 184 181 181 186 186 184 187 192 191 192 191 186 187 188 192 191 188 192 193 196 201 202 203 202 205 201 196 167 173 168 171 170 181 187 181 191 202 204 192 181 155 117 122 120 126 151 159 148 152 166 176 180 185 189 199 210 220 220 217 205 182 156 76 80 111 158 164 163 159 147 110 98 95 81 88 346 293 315 288
176 176 176 181 188 188 185 180 183 184 182 189 187 187 195 195 192 194 194 193 195 191 193 194 195 198 198 199 198 204 208 208 208 175 174 177 171 168 162 183 187 183 202 201 202 204 182 152 178 178 181 188 190 197 187 181 192 194 195 193 198 208 204 182 177 159 145 143 137 158 163 153 189 101 94 92 101 115 114 113 121 198 241 265 262
180 180 182 186 189 185 186 184 183 189 186 182 126 95 47 52 31 190 187 101 107 179 193 192 192 193 198 200 197 203 208 207 177 166 161 172 176 177 184 185 187 188 195 199 197 203 204 204 193 197 199 202 207 208 209 202 197 201 202 202 202 204 179 189 170 164 152 136 142 144 162 125 78 116 135 117 131 171 144 137 188 200 230 258 270
182 184 184 190 191 185 187 181 183 187 185 162 143 121 110 64 49 47 53 85 96 86 83 92 129 170 194 185 69 52 74 154 168 164 160 167 173 177 180 184 184 192 184 173 197 203 206 213 217 220 215 217 218 219 218 217 214 198 197 182 193 158 142 166 140 116 113 118 113 199 168 126 176 137 104 88 115 14 172 178 201 206 233 257 291
269 200 190 194 187 181 188 181 180 184 177 150 148 151 146 139 91 37 46 63 70 75 70 61 59 68 125 141 133 70 52 137 152 153 164 166 173 178 179 179 186 182 174 168 181 198 209 208 214 220 220 222 221 224 224 224 215 197 152 163 150 145 136 114 136 122 120 115 153 185 131 163 160 125 107 128 126 238 238 170 208 211 198 250 230
280 277 235 200 193 181 187 181 180 186 168 159 162 163 158 152 139 128 59 57 72 73 60 51 49 49 58 129 154 155 158 160 164 160 166 172 172 176 175 176 173 163 142 162 194 194 205 212 215 216 219 227 221 220 218 205 134 132 145 134 132 134 93 80 66 85 109 110 143 170 191 160 112 97 141 174 187 230 153 229 220 187 157 18 17
206 252 283 258 201 183 195 176 181 184 165 161 163 170 167 160 143 142 136 135 98 69 60 50 42 47 51 53 102 114 122 134 146 154 160 164 163 149 128 102 105 150 163 177 184 197 197 210 219 217 219 220 207 123 111 122 128 107 76 33 61 76 66 48 10 87 106 83 247 137 118 184 144 161 182 171 183 109 214 221 204 149 99 73 7
220 247 273 273 235 196 192 173 179 179 160 160 165 169 165 165 147 148 156 151 153 144 153 83 47 39 43 43 54 101 121 124 124 129 132 136 132 129 112 112 122 153 247 212 192 196 196 202 216 205 167 132 134 126 107 96 90 85 92 108 109 114 127 162 159 30 63 188 254 165 122 34 104 134 108 206 210 89 301 253 267 121 119 115 58
231 237 256 254 243 217 189 171 173 175 159 160 161 165 162 164 152 156 157 147 142 143 116 82 68 49 63 50 45 56 82 111 126 129 133 134 142 139 148 154 144 163 177 188 190 183 111 114 107 105 110 109 106 98 94 92 100 103 106 114 111 114 135 124 112 129 257 220 106 89 91 66 220 117 190 273 198 192 213 182 81 55 125 136 134
325 242 233 239 242 238 198 155 160 154 141 144 145 151 154 161 156 155 158 162 151 122 110 119 127 94 69 55 56 56 65 85 90 104 126 141 152 150 155 172 166 153 169 152 99 94 91 80 95 84 61 62 68 92 102 102 94 94 91 77 95 144 149 135 149 169 187 196 125 146 175 226 147 107 183 237 318 322 213 193 159 178 197 162 184
349 327 310 265 255 238 246 122 112 117 117 103 97 97 88 122 145 138 133 113 106 114 119 133 132 130 134 107 113 97 99 100 97 83 83 94 108 92 72 59 80 95 94 87 87 93 90 83 76 94 85 85 82 80 95 98 95 98 109 122 113 100 101 98 101 95 118 198 145 168 206 199 183 184 194 190 204 209 245 104 302 271 108 167 200
352 326 347 28 352 349 92 60 89 111 106 105 107 105 105 98 91 95 100 102 108 113 126 124 132 119 115 135 126 138 130 129 132 136 135 131 97 91 88 88 88 92 86 88 93 88 78 70 57 54 52 47 50 56 69 83 92 100 86 82 83 95 107 137 157 194 189 218 132 178 155 330 42 63 76 344 302 304 38 327 238 148 238 356 294
19 360 1 20 27 6 19 52 66 58 67 92 96 106 109 106 104 105 108 108 105 117 132 130 119 109 126 143 149 167 142 136 132 130 116 102 102 84 79 88 91 92 94 84 71 72 81 75 69 65 61 61 63 63 60 57 51 59 91 125 156 163 147 91 168 222 211 151 133 58 58 50 37 25 24 10 341 307 153 142 103 7 353 309 277
32 28 22 13 23 32 42 54 58 65 71 64 61 54 58 74 89 104 116 109 103 105 104 96 92 80 66 56 38 46 107 94 89 84 90 93 86 83 81 82 87 89 88 82 75 72 75 82 80 79 71 67 63 66 64 57 49 44 30 29 53 105 110 101 59 34 22 37 41 43 44 59 34 25 15 2 336 336 342 342 328 327 266 250 246
36 31 23 10 6 28 47 53 59 60 63 63 60 62 62 62 62 67 70 75 80 82 82 75 74 70 69 69 70 74 77 67 65 66 64 63 67 69 71 70 63 68 74 81 81 77 71 69 70 70 69 62 61 56 52 52 52 52 40 32 33 32 46 41 35 32 33 35 34 34 38 39 22 7 15 6 352 345 343 350 354 342 325 322 316
57 59 55 44 24 16 21 37 46 50 50 53 60 59 59 59 59 64 64 66 77 91 93 94 91 82 72 67 71 71 73 73 75 72 72 74 76 80 79 77 70 63 59 65 77 79 78 74 65 54 49 44 39 43 41 35 27 33 52 55 46 42 45 38 33 29 21 29 31 17 17 22 25 9 17 8 356 352 348 347 349 342 347 351 345
52 48 61 68 57 39 26 34 49 57 62 67 71 71 73 71 67 66 73 74 74 83 88 97 101 93 90 73 70 71 71 72 75 79 82 82 78 75 71 73 76 75 72 68 61 63 67 67 64 61 58 57 53 49 46 41 35 31 27 35 42 38 38 30 28 25 18 13 10 12 2 2 360 332 324 5 358 350 343 345 345 355 352 334 340
57 48 41 52 61 60 45 40 42 52 58 62 68 71 76 83 83 78 70 70 74 72 69 79 81 83 81 78 79 84 84 80 76 75 72 75 81 82 80 78 74 75 77 78 82 84 86 80 78 79 81 76 73 67 60 47 40 39 35 31 40 39 32 23 16 2 6 7 4 347 323 334 6 358 7 0 352 344 339 344 344 344 341 343 337
58 56 53 46 43 49 52 46 38 46 51 60 70 75 76 77 80 81 86 81 73 74 76 73 73 74 75 74 73 76 83 87 87 88 88 82 79 78 78 82 81 77 74 70 69 67 70 81 82 79 76 77 76 74 66 64 58 49 37 35 34 36 20 3 348 356 13 11 354 330 331 359 21 10 14 360 359 360 350 338 342 344 341 327 328
68 69 62 59 56 53 45 50 50 48 58 62 66 67 65 69 78 80 78 81 83 79 72 73 78 78 77 83 83 75 66 70 73 74 83 86 85 86 88 92 93 91 85 84 80 72 60 51 57 69 74 71 66 63 61 60 62 59 53 38 32 20 18 346 346 14 1 344 325 318 333 340 16 17 22 12 346 349 344 335 333 325 315 318 317
47 55 65 59 49 49 55 58 63 62 56 58 62 61 58 65 69 70 76 76 80 78 79 80 80 83 82 73 69 77 76 74 75 74 70 75 78 80 77 76 78 80 82 83 80 76 75 71 71 69 69 68 71 70 67 60 56 49 44 37 28 15 350 336 3 9 345 312 298 317 312 321 23 30 18 356 343 340 333 348 346 347 346 336 328
58 55 51 53 63 60 56 57 61 64 66 65 69 71 67 66 70 69 68 69 67 71 75 74 74 80 83 80 73 66 65 70 72 70 67 63 71 79 80 81 79 79 81 80 81 82 86 85 81 80 82 81 80 77 70 61 52 47 39 34 12 11 10 2 8 2 314 295 309 310 315 316 336 350 20 10 2 360 352 1 355 343 323 318 310
51 52 62 60 57 53 54 56 53 55 67 72 68 71 69 67 61 69 73 70 65 61 59 64 68 68 76 79 78 73 74 77 72 74 77 79 77 83 90 91 89 86 85 85 90 90 88 84 83 84 82 82 78 75 69 62 54 44 36 19 10 16 18 8 15 4 353 333 306 277 306 5 9 18 15 14 16 13 17 360 336 318 315 318 321
55 58 60 57 58 57 53 55 57 58 53 61 70 77 76 75 64 57 67 76 83 82 81 76 70 64 62 63 68 74 78 83 83 81 81 84 84 83 81 87 91 91 90 87 85 82 81 83 83 82 82 83 81 76 70 65 56 49 37 27 25 22 20 18 5 351 353 348 301 344 31 11 25 26 26 27 13 8 349 323 328 349 346 322 304